BAW28F KLAX-EGLL

Flight info

Callsign BAW28F
Flight time N/A
Altitude 33000
Route SUMMR2 RIZIN EHF/N0497F320 J5 LKV J3 IMB/N0489F330 J3 GEG J517 BZXIV ANTAK Q953 IGVEP DUDNI Q882 IGVUX/N0486F340 Q882 CACHO/N0490F330 Q856 YMM/N0489F350 59N107W 63N099W 65N093W 67N081W 69N067W/M084F350 69N061W 69N045W 67N031W/M084F370 65N019W 63N013W/N0482F370 MODGO STN FYNER INKOB Q39 DANDI UL28 PENIL L10 WAL UY53 NUGRA
Aircraft B77W/H-SDE1E2E3FGHIJ2J3J4J5M1RWXY/LB1D1

Departure

Time 2026-04-20 06:47
Airport Los Angeles International Airport (KLAX)

Arrival

Time N/A
Airport London Heathrow Airport (EGLL)
Time Latitude Longitude Altitude Speed Heading
2026-04-20 05:58 33.94020 -118.41076 99 ft 0 kts 83°
2026-04-20 06:32 33.94018 -118.41099 97 ft 4 kts 83°
2026-04-20 06:32 33.94015 -118.41130 95 ft 4 kts 83°
2026-04-20 06:33 33.94012 -118.41162 95 ft 4 kts 70°
2026-04-20 06:33 33.93998 -118.41180 96 ft 4 kts
2026-04-20 06:33 33.93973 -118.41177 96 ft 2 kts 353°
2026-04-20 06:33 33.93967 -118.41176 97 ft 0 kts 353°
2026-04-20 06:36 33.94011 -118.41183 98 ft 13 kts 352°
2026-04-20 06:36 33.94139 -118.41206 98 ft 24 kts 351°
2026-04-20 06:37 33.94332 -118.41237 98 ft 19 kts 353°
2026-04-20 06:37 33.94431 -118.41252 98 ft 15 kts 353°
2026-04-20 06:37 33.94541 -118.41269 99 ft 16 kts 353°
2026-04-20 06:37 33.94658 -118.41287 99 ft 18 kts 352°
2026-04-20 06:38 33.94770 -118.41283 101 ft 10 kts 32°
2026-04-20 06:38 33.94797 -118.41248 101 ft 5 kts 57°
2026-04-20 06:38 33.94807 -118.41205 99 ft 7 kts 85°
2026-04-20 06:38 33.94806 -118.41095 102 ft 20 kts 79°
2026-04-20 06:39 33.94839 -118.40829 99 ft 35 kts 81°
2026-04-20 06:39 33.94877 -118.40455 102 ft 56 kts 82°
2026-04-20 06:39 33.94913 -118.40109 99 ft 41 kts 85°
2026-04-20 06:39 33.94941 -118.39950 99 ft 0 kts 43°
2026-04-20 06:41 33.94994 -118.39918 99 ft 21 kts 359°
2026-04-20 06:41 33.95036 -118.39990 101 ft 0 kts 265°
2026-04-20 06:44 33.95035 -118.39991 101 ft 1 kts 265°
2026-04-20 06:44 33.95033 -118.40022 100 ft 0 kts 265°
2026-04-20 06:46 33.95029 -118.40078 99 ft 19 kts 265°
2026-04-20 06:46 33.94995 -118.40508 101 ft 97 kts 264°
2026-04-20 06:47 33.94869 -118.41693 101 ft 188 kts 263°
2026-04-20 06:47 33.94669 -118.43507 423 ft 229 kts 262°
2026-04-20 06:47 33.94479 -118.45345 1772 ft 219 kts 263°
2026-04-20 06:47 33.94298 -118.47196 2745 ft 229 kts 262°
2026-04-20 06:48 33.94119 -118.49170 3538 ft 238 kts 264°
2026-04-20 06:48 33.94070 -118.51174 4104 ft 244 kts 268°
2026-04-20 06:48 33.93998 -118.53228 4648 ft 247 kts 264°
2026-04-20 06:48 33.93865 -118.55296 5254 ft 248 kts 262°
2026-04-20 06:49 33.93713 -118.57365 5878 ft 249 kts 262°
2026-04-20 06:49 33.93553 -118.59446 6470 ft 250 kts 261°
2026-04-20 06:49 33.93390 -118.61536 7017 ft 251 kts 261°
2026-04-20 06:49 33.93222 -118.63661 7485 ft 261 kts 261°
2026-04-20 06:50 33.93046 -118.65892 7885 ft 274 kts 261°
2026-04-20 06:50 33.92866 -118.68210 8459 ft 282 kts 261°
2026-04-20 06:50 33.92683 -118.70577 9145 ft 286 kts 261°
2026-04-20 06:50 33.92498 -118.72968 9888 ft 288 kts 261°
2026-04-20 06:51 33.92311 -118.75392 10473 ft 296 kts 261°
2026-04-20 06:51 33.92111 -118.77917 10655 ft 319 kts 261°
2026-04-20 06:51 33.91890 -118.80706 10854 ft 341 kts 262°
2026-04-20 06:51 33.92632 -118.83108 11854 ft 313 kts 324°
2026-04-20 06:52 33.94745 -118.83748 10766 ft 348 kts 24°
2026-04-20 06:52 33.96902 -118.81946 7781 ft 409 kts 51°
2026-04-20 06:52 33.98177 -118.78683 6805 ft 442 kts 71°
2026-04-20 06:52 33.99268 -118.75410 8564 ft 411 kts 70°
2026-04-20 06:53 33.99807 -118.72084 8832 ft 408 kts 94°
2026-04-20 06:53 33.99514 -118.68603 7939 ft 433 kts 102°
2026-04-20 06:53 33.98903 -118.64989 7503 ft 444 kts 104°
2026-04-20 06:53 33.98270 -118.61310 6598 ft 456 kts 103°
2026-04-20 06:54 33.97492 -118.57581 4630 ft 480 kts 108°
2026-04-20 06:54 33.96371 -118.53654 3716 ft 489 kts 110°
2026-04-20 06:54 33.95272 -118.49744 2437 ft 498 kts 108°
2026-04-20 06:54 33.94410 -118.45867 1255 ft 458 kts 101°
2026-04-20 06:55 33.94573 -118.42115 273 ft 436 kts 80°
2026-04-20 06:55 33.95131 -118.39288 231 ft 127 kts 189°
2026-04-20 06:55 33.95279 -118.39061 134 ft 0 kts 21°